Stations météo

réclame
Mon MeteoGroup
Aachen-Orsbach, Allemagne (10505): Température de l'air & dewpoint: 22.05.2018 07:00:00 - 28.05.2018 07:00:00 (CEST)Aachen-Orsbach, Allemagne (10505): Température de l'air 5cm & Température de l'air -5cm: 22.05.2018 07:00:00 - 28.05.2018 07:00:00 (CEST)Aachen-Orsbach, Allemagne (10505): Température de l'air -20cm & Température de l'air -100cm: 22.05.2018 07:00:00 - 28.05.2018 07:00:00 (CEST)Aachen-Orsbach, Allemagne (10505): Vitesse du vent & gusts: 22.05.2018 07:00:00 - 28.05.2018 07:00:00 (CEST)Aachen-Orsbach, Allemagne (10505): Direction du vent: 22.05.2018 07:00:00 - 28.05.2018 07:00:00 (CEST)Aachen-Orsbach, Allemagne (10505): reduced air pressure: 22.05.2018 07:00:00 - 28.05.2018 07:00:00 (CEST)Aachen-Orsbach, Allemagne (10505): visibility: 22.05.2018 07:00:00 - 28.05.2018 07:00:00 (CEST)Aachen-Orsbach, Allemagne (10505): Ensoleillement: 22.05.2018 07:00:00 - 28.05.2018 07:00:00 (CEST)Aachen-Orsbach, Allemagne (10505): Quantités de précipitations: 22.05.2018 07:00:00 - 28.05.2018 07:00:00 (CEST)
Date & Time tt [°C] td [°C] tt 5cm [°C] tt -5cm [°C] tt -20cm [°C] tt -100cm [°C] ff [km/h] ff [knt] fx [km/h] fx [knt] dd ppp [hPa] vv [km] sd [min] rr [mm]
28.05.2018 07:00:00 16,2 14,4 15,6 16,5 19,0 13,8 4 2 9 5 SE 1017,7 50 4 0,0
28.05.2018 06:00:00 16,5 13,1 13,9 16,4 19,2 13,8 3 2 10 5 SW 1017,3 50 0 0,0
28.05.2018 05:00:00 17,5 13,1 12,6 16,7 19,4 13,8 2 1 8 5 NW 1017,2 68 0 0,0
28.05.2018 04:00:00 16,2 13,6 14,0 17,1 19,7 13,8 6 4 12 6 SSW 1017,3 72 0 0,0
28.05.2018 03:00:00 15,9 14,5 15,1 17,3 19,9 13,8 9 5 14 8 ESE 1017,3 57 0 0,0
28.05.2018 02:00:00 15,5 14,2 14,0 17,5 20,1 13,8 7 4 13 7 E 1017,4 52 0 0,0
28.05.2018 01:00:00 16,9 13,2 14,3 18,0 20,3 13,8 6 4 13 7 SSE 1016,9 66 0 0,0
28.05.2018 00:00:00 17,0 13,7 14,9 18,4 20,6 13,8 9 5 14 8 SE 1016,8 75 0 0,0
27.05.2018 23:00:00 17,3 14,1 16,2 19,0 20,7 13,8 11 6 22 12 ESE 1017,0 75 0 0,0
27.05.2018 22:00:00 17,9 14,0 16,7 19,8 20,9 13,8 14 8 25 13 ESE 1016,7 73 0 0,0
27.05.2018 21:00:00 19,4 17,1 18,8 20,6 21,1 13,9 16 9 26 14 ESE 1016,8 43 11 0,0
27.05.2018 20:00:00 19,6 17,6 20,3 20,9 21,3 14,1 13 7 19 10 ENE 1016,5 25 4 0,0
27.05.2018 19:00:00 18,7 17,5 18,3 20,3 21,5 13,7 14 8 26 14 ENE 1017,0 28 0 1,0
27.05.2018 18:00:00 17,4 13,9 16,2 21,7 21,1 13,5 15 8 60 32 NNE 1017,1 26 0 19,4
27.05.2018 17:00:00 24,2 18,6 25,1 26,4 20,9 13,4 2 1 12 6 E 1015,8 40 33 0,0
27.05.2018 16:00:00 24,0 19,1 29,2 25,2 20,8 13,4 11 6 18 10 E 1016,2 40 39 0,0
27.05.2018 15:00:00 22,1 18,5 25,4 22,3 20,8 13,4 8 4 15 8 E 1017,2 45 5 0,0
27.05.2018 14:00:00 18,8 17,1 18,7 21,9 20,7 13,4 13 7 22 12 SE 1017,6 40 0 4,8
27.05.2018 13:00:00 18,9 16,3 17,9 23,8 20,5 13,4 13 7 50 27 S 1018,3 15 0 0,2
27.05.2018 12:00:00 23,4 17,7 23,2 26,1 20,3 13,4 9 5 19 10 ENE 1017,4 22 17 0,0
27.05.2018 11:00:00 25,1 18,2 30,1 24,8 20,1 13,4 11 6 18 10 ENE 1017,2 50 50 0,0
27.05.2018 10:00:00 23,3 17,5 26,4 22,2 20,2 13,4 13 7 19 11 E 1017,2 45 21 0,0
27.05.2018 09:00:00 21,4 16,3 24,0 20,5 20,3 13,4 15 8 19 10 E 1017,7 45 45 0,0
27.05.2018 08:00:00 19,5 15,9 20,5 19,2 20,5 13,4 12 7 18 10 E 1017,8 45 38 0,0
27.05.2018 07:00:00 16,1 14,8 15,5 18,7 20,7 13,4 14 7 15 8 E 1017,9 35 0 0,0
27.05.2018 06:00:00 16,1 14,8 15,2 19,1 20,9 13,3 13 7 15 8 E 1017,7 35 0 0,0
27.05.2018 05:00:00 16,4 14,5 15,7 19,4 21,2 13,3 12 7 15 8 E 1017,8 36 0 0,0
27.05.2018 04:00:00 17,3 14,5 16,2 19,6 21,4 13,3 11 6 16 9 E 1018,0 42 0 0,0
27.05.2018 03:00:00 17,7 14,7 16,1 20,1 21,7 13,3 11 6 16 8 ESE 1018,3 45 0 0,0
27.05.2018 02:00:00 18,3 15,0 16,3 20,6 22,0 13,3 9 5 16 9 ESE 1018,6 37 0 0,0
27.05.2018 01:00:00 17,4 14,8 14,9 21,2 22,2 13,3 10 5 13 7 E 1019,0 37 0 0,0
27.05.2018 00:00:00 18,8 15,1 16,6 22,0 22,5 13,3 11 6 17 9 E 1018,8 46 0 0,0
26.05.2018 23:00:00 18,6 15,1 16,9 23,0 22,6 13,3 15 8 16 9 E 1018,7 53 0 0,0
26.05.2018 22:00:00 20,1 15,2 18,2 24,3 22,7 13,3 14 7 19 11 E 1018,8 57 0 0,0
26.05.2018 21:00:00 21,7 15,7 21,7 25,7 22,7 13,3 13 7 25 14 E 1018,4 74 43 0,0
26.05.2018 20:00:00 23,4 15,5 24,3 27,2 22,5 13,3 20 11 30 16 E 1018,0 75 58 0,0
26.05.2018 19:00:00 25,1 16,1 28,2 28,6 22,2 13,3 19 10 36 19 ENE 1017,8 58 60 0,0
26.05.2018 18:00:00 25,7 16,1 30,2 29,7 21,8 13,3 19 11 33 18 ENE 1017,8 59 60 0,0
26.05.2018 17:00:00 25,8 16,7 31,4 30,5 21,3 13,2 19 11 31 17 ENE 1017,8 40 60 0,0
26.05.2018 16:00:00 25,4 17,0 29,7 30,6 20,8 13,2 21 11 31 17 E 1018,3 40 59 0,0
26.05.2018 15:00:00 25,5 17,8 31,4 30,1 20,3 13,2 20 11 34 19 E 1018,6 40 59 0,0
26.05.2018 14:00:00 24,9 18,0 30,6 29,2 19,8 13,2 19 10 31 17 ENE 1018,8 40 51 0,0
26.05.2018 13:00:00 24,5 17,1 30,7 28,0 19,4 13,2 16 9 29 16 E 1018,8 40 59 0,0
26.05.2018 12:00:00 23,5 17,4 28,3 26,2 19,1 13,2 21 11 28 15 ENE 1018,8 40 60 0,0
26.05.2018 11:00:00 22,7 17,5 26,9 23,9 18,9 13,2 15 8 21 12 ENE 1019,1 40 56 0,0
26.05.2018 10:00:00 20,8 16,7 23,2 22,4 18,9 13,2 13 7 19 11 ENE 1019,0 30 60 0,0
26.05.2018 09:00:00 20,7 16,2 22,9 20,2 19,0 13,2 8 4 13 7 E 1018,8 30 60 0,0
26.05.2018 08:00:00 18,6 16,2 19,3 18,1 19,2 13,2 9 5 11 6 E 1018,8 30 60 0,0
26.05.2018 07:00:00 15,1 14,2 14,3 16,8 19,5 13,2 10 5 11 6 E 1019,0 25 40 0,0
26.05.2018 06:00:00 14,9 13,5 11,7 16,9 19,8 13,2 7 4 10 5 ESE 1018,6 25 0 0,0
26.05.2018 05:00:00 14,0 13,1 11,5 17,4 20,1 13,2 8 4 11 6 ESE 1018,4 17 0 0,0
26.05.2018 04:00:00 14,6 13,6 12,8 18,0 20,4 13,2 11 6 14 8 ESE 1018,5 20 0 0,0
26.05.2018 03:00:00 16,3 14,4 12,8 18,7 20,7 13,2 7 4 16 9 ESE 1018,5 27 0 0,0
26.05.2018 02:00:00 15,8 14,5 13,6 19,4 20,9 13,2 11 6 14 7 ESE 1018,5 18 0 0,0
26.05.2018 01:00:00 17,2 15,6 13,1 20,2 21,2 13,2 5 3 7 4 ESE 1018,5 15 0 0,0
26.05.2018 00:00:00 18,8 15,8 14,4 21,2 21,4 13,2 5 3 9 5 E 1018,2 21 0 0,0
25.05.2018 23:00:00 18,9 15,6 14,8 22,3 21,6 13,2 6 3 11 6 E 1018,1 24 0 0,0
25.05.2018 22:00:00 18,9 15,8 17,1 23,9 21,6 13,2 10 5 14 8 ENE 1017,7 26 0 0,0
25.05.2018 21:00:00 20,5 16,4 20,8 25,4 21,5 13,2 9 5 13 7 ENE 1017,4 32 8 0,0
25.05.2018 20:00:00 22,4 15,0 23,2 26,9 21,3 13,1 8 4 14 8 NNE 1017,0 47 60 0,0
25.05.2018 19:00:00 22,5 16,2 25,9 28,4 21,0 13,1 12 7 16 9 ENE 1016,8 44 60 0,0
25.05.2018 18:00:00 22,7 16,7 28,8 29,6 20,4 13,1 10 5 23 12 E 1017,3 33 35 0,0
25.05.2018 17:00:00 23,1 15,6 28,5 31,7 19,8 13,1 10 6 16 9 NE 1017,4 40 56 0,0
25.05.2018 16:00:00 24,3 14,4 31,8 30,9 19,2 13,1 3 2 13 7 NE 1017,3 40 43 0,0
25.05.2018 15:00:00 23,7 15,3 29,8 30,5 18,5 13,1 8 4 15 8 NNW 1017,2 50 58 0,0
25.05.2018 14:00:00 23,1 14,6 28,9 29,5 17,9 13,1 6 3 12 6 WSW 1017,4 50 59 0,0
25.05.2018 13:00:00 22,4 13,8 27,3 28,0 17,3 13,1 5 3 10 6 WNW 1017,7 45 57 0,0
25.05.2018 12:00:00 21,7 14,2 26,3 25,9 16,9 13,1 4 2 10 6 WSW 1017,8 45 58 0,0
25.05.2018 11:00:00 21,2 14,8 24,2 23,2 16,6 13,1 3 1 9 5 W 1017,9 45 60 0,0
25.05.2018 10:00:00 20,4 15,0 22,2 20,5 16,5 13,1 4 2 13 7 W 1017,8 35 60 0,0
25.05.2018 09:00:00 18,7 15,6 19,8 17,8 16,5 13,1 10 6 14 7 SSW 1017,7 23 60 0,0
25.05.2018 08:00:00 17,7 15,5 16,1 15,4 16,7 13,1 6 3 14 8 S 1017,3 23 60 0,0
25.05.2018 07:00:00 14,4 13,5 13,1 14,0 16,9 13,1 6 3 10 5 SE 1017,5 23 41 0,0
25.05.2018 06:00:00 13,3 13,3 9,9 14,0 17,1 13,1 5 3 10 5 E 1017,5 23 0 0,0
25.05.2018 05:00:00 13,7 13,5 9,9 14,4 17,4 13,1 5 3 7 4 E 1017,3 10 0 0,0
25.05.2018 04:00:00 14,0 13,2 10,0 14,9 17,6 13,1 8 4 10 6 SSE 1017,1 20 0 0,0
25.05.2018 03:00:00 14,1 13,5 11,8 15,5 17,8 13,1 10 6 16 9 S 1017,2 15 0 0,0
25.05.2018 02:00:00 14,1 13,3 11,7 16,0 18,0 13,1 9 5 12 6 S 1017,4 33 0 0,0
25.05.2018 01:00:00 15,2 14,4 12,0 16,8 18,2 13,1 5 3 10 6 SE 1017,5 18 0 0,0
25.05.2018 00:00:00 15,3 15,3 13,8 17,5 18,3 13,1 3 2 8 4 W 1017,4 11 0 0,0
24.05.2018 23:00:00 15,8 15,1 14,4 18,0 18,4 13,1 3 2 7 4 NW 1017,1 19 0 0,0
24.05.2018 22:00:00 15,9 15,4 15,4 18,8 18,5 13,1 8 4 10 6 S 1016,9 20 0 0,0
24.05.2018 21:00:00 16,9 16,3 16,4 19,5 18,6 13,1 6 3 10 5 SW 1016,5 15 0 0,0
24.05.2018 20:00:00 17,1 16,5 16,9 20,0 18,6 13,1 6 3 19 10 SSW 1016,3 12 0 0,0
24.05.2018 19:00:00 18,9 15,6 18,5 20,8 18,5 13,0 14 7 25 14 E 1015,8 30 0 0,0
24.05.2018 18:00:00 19,7 15,6 20,0 22,1 18,3 13,0 17 9 29 16 ENE 1015,6 32 4 0,0
24.05.2018 17:00:00 21,1 16,5 24,3 23,4 18,0 13,0 22 12 30 16 E 1015,2 35 30 0,0
24.05.2018 16:00:00 20,7 15,8 23,6 23,2 17,7 13,0 21 11 32 17 ENE 1016,2 35 16 0,0
24.05.2018 15:00:00 21,3 15,7 25,0 23,5 17,3 13,0 22 12 33 18 E 1016,4 40 34 0,0
24.05.2018 14:00:00 21,3 15,4 25,9 23,8 16,9 13,0 18 10 28 15 ENE 1016,9 50 53 0,0
24.05.2018 13:00:00 21,1 15,7 25,4 22,8 16,6 13,0 18 10 29 16 ENE 1017,1 50 60 0,0
24.05.2018 12:00:00 20,4 14,3 24,9 21,6 16,3 13,0 13 7 22 12 E 1017,6 50 60 0,0
24.05.2018 11:00:00 19,2 13,4 21,9 19,6 16,1 13,0 16 8 27 15 E 1018,3 50 60 0,0
24.05.2018 10:00:00 18,6 12,5 21,2 18,3 16,0 13,0 15 8 24 13 ENE 1018,4 50 60 0,0
24.05.2018 09:00:00 17,1 12,7 18,3 16,4 16,1 13,0 14 8 27 15 E 1018,6 40 60 0,0
24.05.2018 08:00:00 16,1 11,5 16,7 14,9 16,2 13,0 17 9 26 14 ENE 1018,8 40 52 0,0
24.05.2018 07:00:00 13,8 11,5 12,5 13,7 16,4 13,0 11 6 14 8 ENE 1019,0 30 16 0,0
24.05.2018 06:00:00 12,4 10,5 10,2 13,9 16,6 13,0 9 5 14 8 E 1019,1 30 0 0,0
24.05.2018 05:00:00 13,5 11,7 11,1 14,1 16,8 13,0 7 4 8 4 E 1019,0 27 0 0,0
24.05.2018 04:00:00 14,0 11,3 9,8 14,4 17,0 13,0 6 3 11 6 E 1019,4 33 0 0,0
24.05.2018 03:00:00 15,2 11,7 11,4 14,9 17,2 13,0 6 4 8 4 E 1019,5 34 0 0,0
24.05.2018 02:00:00 15,6 11,6 11,2 15,2 17,4 13,0 5 3 8 4 E 1019,6 39 0 0,0
24.05.2018 01:00:00 16,0 11,8 11,6 15,6 17,6 13,0 5 3 8 5 E 1019,7 36 0 0,0
24.05.2018 00:00:00 15,7 12,1 11,9 16,1 17,8 13,0 8 4 16 8 E 1019,8 35 0 0,0
23.05.2018 23:00:00 15,9 12,3 12,9 16,8 17,9 13,0 10 5 16 9 E 1019,3 36 0 0,0
23.05.2018 22:00:00 17,7 13,0 15,2 17,7 18,0 13,0 12 7 19 10 NE 1019,0 39 0 0,0
23.05.2018 21:00:00 19,1 13,6 17,1 18,7 18,0 12,9 12 6 22 12 NE 1018,4 42 0 0,0
23.05.2018 20:00:00 19,9 14,4 19,3 19,9 17,9 12,9 15 8 32 18 ENE 1018,4 44 37 0,0
23.05.2018 19:00:00 20,4 14,1 21,9 20,4 17,8 12,9 20 11 32 17 ENE 1018,1 35 60 0,0
23.05.2018 18:00:00 21,1 14,7 23,8 20,7 17,6 12,9 16 8 29 16 ENE 1018,0 38 51 0,0
23.05.2018 17:00:00 19,7 14,1 20,5 21,2 17,4 12,9 16 9 31 17 ENE 1018,3 35 27 0,0
23.05.2018 16:00:00 20,0 15,3 22,0 21,2 17,1 12,9 16 8 23 13 ENE 1018,4 18 12 0,0
23.05.2018 15:00:00 18,9 15,0 20,5 22,0 16,7 12,9 19 10 33 18 ENE 1018,9 18 36 0,0
23.05.2018 14:00:00 19,8 16,3 24,1 21,8 16,4 12,9 17 9 26 14 ENE 1019,0 13 38 0,0
23.05.2018 13:00:00 18,3 15,4 22,7 20,6 16,2 12,9 11 6 18 10 NE 1019,0 8 47 0,1
23.05.2018 12:00:00 16,0 15,2 17,0 17,8 16,1 12,9 6 3 11 6 ENE 1019,2 3,5 0 0,1
23.05.2018 11:00:00 15,5 14,7 17,3 17,2 16,1 12,9 7 4 11 6 NE 1018,9 2,0 0 0,0
23.05.2018 10:00:00 15,2 14,9 16,7 16,0 16,1 12,9 4 2 11 6 NNE 1018,7 2,0 0 0,5
23.05.2018 09:00:00 14,2 14,2 14,5 15,3 16,2 12,9 6 3 8 4 N 1018,3 1,0 0 0,6
23.05.2018 08:00:00 13,9 13,9 14,2 15,0 16,3 12,9 3 2 7 4 ENE 1017,9 1,8 0 0,1
23.05.2018 07:00:00 13,4 13,4 13,4 14,8 16,4 12,9 5 3 6 3 WNW 1017,0 2,0 0 0,0
23.05.2018 06:00:00 13,0 13,0 12,8 14,9 16,6 12,9 5 3 6 3 SW 1016,6 3,0 0 0,0
23.05.2018 05:00:00 13,5 13,5 12,9 15,0 16,7 12,9 3 2 8 4 NNE 1016,3 3,0 0 0,0
23.05.2018 04:00:00 13,5 13,5 13,1 15,2 16,8 12,9 7 4 14 7 ENE 1016,2 1,9 0 0,0
23.05.2018 03:00:00 13,8 13,4 13,2 15,4 17,0 12,8 6 3 9 5 ENE 1016,2 4,8 0 0,1
23.05.2018 02:00:00 13,7 13,7 13,5 15,6 17,1 12,8 5 3 9 5 E 1016,0 2,0 0 0,9
23.05.2018 01:00:00 14,3 13,9 13,9 15,9 17,3 12,8 7 4 11 6 NE 1016,0 2,5 0 2,4
23.05.2018 00:00:00 14,3 14,2 13,8 16,2 17,4 12,8 9 5 12 7 ESE 1015,8 3,2 0 0,0
22.05.2018 23:00:00 14,5 14,2 14,1 16,6 17,5 12,8 6 3 8 5 NE 1015,6 4,0 0 0,0
22.05.2018 22:00:00 14,7 14,3 14,2 17,0 17,6 12,8 4 2 17 9 N 1014,7 7 0 0,0
22.05.2018 21:00:00 15,1 14,4 14,9 17,6 17,7 12,8 11 6 17 9 N 1014,5 14 0 0,0
22.05.2018 20:00:00 15,4 15,3 15,3 18,1 17,7 12,8 7 4 15 8 W 1014,2 7 0 0,0
22.05.2018 19:00:00 16,3 15,8 16,8 18,6 17,8 12,8 6 3 13 7 ESE 1013,0 9 0 0,1
22.05.2018 18:00:00 15,9 15,6 16,4 18,3 17,9 12,8 9 5 13 7 SW 1013,2 9 0 1,6
22.05.2018 17:00:00 15,6 14,6 15,6 18,5 17,9 12,8 4 2 10 5 NW 1013,6 16 0 1,1
22.05.2018 16:00:00 15,4 14,7 15,3 19,0 17,8 12,8 9 5 21 12 NW 1013,5 18 0 1,7
22.05.2018 15:00:00 15,9 14,4 15,6 20,2 17,6 12,8 8 4 16 9 S 1012,8 20 0 3,8
22.05.2018 14:00:00 16,2 15,4 16,0 22,7 17,2 12,8 16 9 23 12 SE 1012,8 22 3 1,7
22.05.2018 13:00:00 22,1 15,3 26,3 25,2 16,8 12,8 5 3 14 8 WSW 1011,9 20 59 0,0
22.05.2018 12:00:00 20,7 14,9 24,4 23,2 16,5 12,8 4 2 16 8 NNW 1011,9 40 60 0,0
22.05.2018 11:00:00 19,0 14,8 21,4 20,7 16,3 12,8 11 6 16 9 WNW 1012,1 40 53 0,0
22.05.2018 10:00:00 18,8 13,6 20,4 18,7 16,3 12,8 4 2 8 4 WSW 1012,0 40 34 0,0
22.05.2018 09:00:00 18,8 12,9 18,5 16,8 16,3 12,8 2 1 6 4 SW 1011,9 40 54 0,0
22.05.2018 08:00:00 15,7 13,6 14,6 14,5 16,5 12,8 6 3 12 6 SSE 1011,7 40 38 0,0
22.05.2018 07:00:00 12,6 11,5 11,4 13,3 16,8 12,7 10 5 12 7 SE 1012,0 40 27 0,0

tt = Température de l'air
td = dewpoint
tt 5cm = Température de l'air 5cm
tt -5cm = Température de l'air -5cm
tt -20cm = Température de l'air -20cm
tt -100cm = Température de l'air -100cm
ff = Vitesse du vent
fx = gusts
dd = Direction du vent
ppp = reduced air pressure
vv = visibility
sd = Ensoleillement
rr = Quantités de précipitations

stations d'obs. à proximité